Voltar ao catálogo

FENGYUN 1C DEB

AtivoLEO
NORAD 31567·DEBRIS·🇨🇳 China

Lançado May 10, 1999 de Taiyuan Satellite Launch Center

Loading…

Próximas Passagens (próximas 24 horas)

TLE

AtualizadoSource: Space-Track

Época: Sep 14, 2026, 02:42 UTC

1 31567U 99025BZJ 26257.11258214  .00004101  00000-0  26959-2 0  9992
2 31567 102.3157 219.4220 0182177   5.3000 355.0023 13.95009976712464

Acompanhe FENGYUN 1C DEB em tempo real com AllMySat

Download on the App Store